Lid_Strength_Index
-1 -0 0 3 9 9 11 10 8 8 9 7 6 7 8 7 8 11 4 3 1 0 -1 -1 -2 -1 -1 -1 -1 -1 -1 -2 -1 -1 -2 -1 -2 -2 -2 -1 -1 -1 -1 -2 -1 -1 -1 -1 -1
0 0 2 5 11 13 11 9 9 8 7 7 7 7 8 8 5 6 6 3 1 1 -0 -0 -2 -2 -2 -1 -2 -2 -1 -1 -1 -1 -1 -2 -1 -1 -1 -2 -1 -2 -2 -2 -2 -2 -1 -1 -1
1 1 6 8 10 12 11 10 9 7 7 8 8 8 7 7 5 5 5 3 2 2 1 0 -1 -1 -1 -2 -1 -2 -2 -2 -2 -2 -2 -2 -2 -2 -2 -2 -2 -1 -1 -2 -2 -2 -2 -2 -1
2 4 5 10 11 9 10 9 8 8 8 8 8 10 8 6 6 5 5 3 3 3 2 1 -0 -0 -0 -0 -0 -0 -0 -0 -1 -1 -0 0 0 0 0 0 0 0 -0 -1 -2 -2 -1 -1 -1
4 5 9 10 10 10 9 8 8 8 8 8 9 10 9 7 5 6 7 5 4 4 3 3 1 1 1 1 1 1 1 1 1 1 2 2 2 2 2 2 2 1 1 1 0 1 1 1 -0
6 7 10 12 10 9 9 8 9 9 8 9 9 10 9 7 7 7 7 7 5 5 4 4 3 2 2 2 2 2 2 3 3 3 3 3 3 3 3 3 3 2 2 2 2 2 2 2 2
7 9 11 10 10 9 9 8 9 9 9 9 9 10 10 8 7 7 8 9 8 7 6 6 6 5 4 4 4 3 4 4 4 5 5 5 5 5 5 5 4 3 3 3 3 3 3 3 3
7 8 10 10 10 10 9 9 9 9 9 8 7 10 10 8 7 8 9 9 9 9 8 8 8 7 7 8 5 5 5 5 6 6 7 7 6 6 5 6 5 4 4 4 4 3 3 4 3
4 10 11 9 10 9 9 10 8 9 10 9 8 9 9 7 8 9 10 10 10 9 9 9 9 9 8 8 7 6 6 7 7 7 7 6 8 9 8 7 6 5 5 5 5 4 5 5 5
7 10 9 8 8 9 8 9 9 10 10 9 9 8 8 8 10 10 11 11 11 11 11 10 10 10 9 9 9 9 9 9 9 9 9 9 9 9 8 7 6 6 6 6 6 6 6 7 8
7 9 8 8 7 8 8 9 8 9 10 9 9 8 9 9 10 10 10 10 10 10 10 10 10 10 10 11 10 10 10 10 10 10 10 10 9 10 10 11 11 10 8 10 10 10 9 10 9
9 7 7 6 7 8 9 8 9 9 9 8 9 8 9 9 10 10 9 9 10 10 10 11 10 10 10 10 10 10 10 10 10 11 11 11 11 12 12 12 12 12 11 12 12 11 11 10 10
8 8 7 7 8 8 8 9 9 9 8 7 7 8 9 9 9 9 9 9 9 9 10 11 11 11 10 10 11 11 11 11 11 11 12 12 12 13 12 12 12 13 13 13 13 12 12 12 11
8 8 8 8 8 8 9 9 9 8 7 7 7 9 9 9 9 9 9 9 8 9 10 10 11 11 10 11 11 11 11 11 12 12 12 12 13 14 13 13 13 13 13 13 13 13 13 12 11
8 10 9 8 8 9 9 11 10 8 8 8 8 8 8 8 8 8 8 9 8 9 10 10 11 11 11 11 11 11 11 11 12 12 12 13 13 14 14 14 14 14 14 14 14 13 13 13 12
10 10 12 9 8 9 10 13 9 8 8 8 9 9 8 8 8 8 8 8 9 9 10 11 10 11 11 12 12 12 12 12 13 13 13 13 13 14 15 15 15 14 14 14 14 14 14 14 13
10 13 12 10 8 9 11 12 9 9 10 10 9 9 9 8 8 8 8 9 9 10 11 11 12 12 12 12 12 12 13 13 13 14 14 14 14 14 15 15 15 14 15 15 14 15 15 15 14
13 13 11 12 10 10 12 12 10 9 9 10 9 8 8 8 8 8 9 9 10 11 11 12 12 12 12 13 13 13 13 14 14 14 14 14 14 14 15 15 15 15 15 15 15 15 15 15 14
10 11 12 10 9 11 11 11 10 10 9 9 9 8 8 9 8 8 9 10 11 12 12 12 13 13 12 13 14 15 15 15 15 14 14 14 15 15 16 16 16 16 16 16 16 16 16 16 15
11 12 12 11 10 11 12 12 10 10 9 9 9 9 9 10 10 10 11 11 11 12 13 13 13 13 12 13 14 15 15 15 15 14 15 14 15 15 16 16 17 16 17 16 16 16 16 16 15
12 13 13 13 11 12 14 14 13 11 9 9 9 9 10 11 11 12 12 11 12 13 13 13 13 13 13 13 14 15 16 16 16 16 16 15 15 15 16 16 17 17 17 17 17 17 17 17 17
14 11 11 12 14 16 13 17 14 13 12 11 10 10 11 11 11 11 12 12 12 12 13 13 13 13 13 14 15 16 17 18 17 16 16 16 15 16 16 16 17 17 17 17 17 16 17 17 18
13 12 13 13 14 15 15 17 16 12 13 12 11 10 10 10 11 12 12 12 12 13 13 13 13 13 13 14 15 16 17 17 16 16 17 17 17 16 17 17 17 18 18 17 17 17 18 17 18
12 13 14 15 16 19 16 16 18 15 13 13 11 11 11 11 11 11 12 12 12 13 13 13 13 13 14 14 15 15 16 17 17 18 18 18 18 17 17 17 18 18 18 18 18 18 18 18 17
13 15 18 19 20 19 15 17 15 13 12 12 12 11 11 11 12 12 12 13 13 13 13 13 14 14 14 15 15 16 16 16 17 17 17 18 19 19 19 18 18 19 19 19 19 18 18 18 18
15 14 18 21 20 18 18 19 16 12 11 11 11 11 11 12 12 12 12 12 13 13 13 13 14 14 15 15 16 16 16 15 16 17 17 18 19 19 19 19 19 19 19 20 19 19 19 18 18
15 17 14 17 21 21 17 16 14 12 12 12 12 12 12 12 12 12 12 12 13 13 13 14 14 14 15 15 15 15 15 17 17 18 19 19 19 19 19 20 20 20 20 20 20 19 19 19 19
15 14 18 17 23 24 18 18 16 13 12 13 13 13 12 12 11 12 12 12 12 13 13 13 14 14 15 15 15 16 16 18 18 19 19 20 20 20 21 20 21 21 21 21 21 20 19 20 19
17 17 16 16 16 22 21 18 15 14 13 13 13 12 11 11 12 12 12 12 12 13 13 14 14 15 15 16 16 17 17 18 19 19 20 20 20 21 21 21 21 21 21 21 21 21 21 21 21
14 15 15 18 19 19 18 17 12 13 13 13 12 11 11 11 11 11 12 12 13 13 14 14 14 15 15 16 17 17 18 19 19 20 20 20 21 21 21 22 22 22 22 22 22 22 22 22 22